STARLINK-4745 (53844 NORAD) Tracking and Keplerian Element Data

This shows tracking and keplerian element data for the satellite.

Feedback or suggestion? Click here.




ElementValue
Catalog53844
NameSTARLINK-4745
Epoch Orbit1053
Epoch Day325.33334491
Epoch Year2022
RAAN305.6391
Inclination53.2174
Eccentricity0.0001046
Argument of Perigee83.0423
Mean Anonmoly304.5479
Mean Motion15.66366519
Decay Rate-0.01138675
L11 53844U 22114AC 22325.33334491 -.01138675 00000+0 -11897-1 0 9997
L22 53844 53.2174 305.6391 0001046 83.0423 304.5479 15.66366519 10535



Live tracking and technical data element details for STARLINK-4745 (NORAD 53844). STARLINK-4745 can be tracked NOW for your location showing map with azimuth and elevation plus other details from your city location.







IsCatalogInMostPopularTable: catalog: 53844, numindb: -1

Insert: records affected: 1


GetName: 53844 STARLINK-4745

Hit Count: inserted at: Thu, 08 Dec 2022 08:42:43 GMT